Regional Weather Roundup
Issued by NWS Cleveland, OH

Home | Current Version | Previous Version | Graphics & Text | Print | Product List | Glossary On
Versions: 1 2 3 4 5 6 7 8 9 10 11 12 13 14 15 16 17 18 19 20 21 22 23 24 25 26 27 28 29 30 31 32 33 34 35 36 37 38 39 40 41 42 43 44 45 46 47 48 49 50
948
ASUS41 KCLE 250612
RWRCLE
OHIO REGIONAL WEATHER ROUNDUP
NATIONAL WEATHER SERVICE WILMINGTON, OH
100 AM EST SAT NOV 25 2017

NOTE: "FAIR" INDICATES FEW OR NO CLOUDS BELOW 12,000 FEET WITH NO
SIGNIFICANT WEATHER AND/OR OBSTRUCTIONS TO VISIBILITY.

OHZ001>008-015>018-024>027-034-035-043-044-250700-
   NORTHWEST OHIO

CITY           SKY/WX    TMP DP  RH WIND       PRES   REMARKS
DEFIANCE       FAIR      47  31  53 SW15G21   29.59F
FINDLAY        FAIR      52  29  41 SW22G33   29.61F
TOLEDO EXPRESS FAIR      48  32  53 SW13      29.58S
TOLEDO EXEC    FAIR      47  31  53 SW14      29.60F
LIMA           FAIR      48  30  49 SW16G26   29.63F
$$

OHZ009>014-019>023-028>033-038-089-250700-
   NORTHEAST OHIO

CITY           SKY/WX    TMP DP  RH WIND       PRES   REMARKS
CLE-HOPKINS    MOCLDY    52  26  36 S18       29.65S
CLE-LAKEFRONT  CLOUDY    52  25  35 S20G31    29.61S
CUY CO. ARPT   NOT AVBL
LORAIN-ELYRIA  MOCLDY    50  25  37 SW16G25   29.63F
ASHTABULA      FAIR      48  23  37 S15G26    29.64F
AKRON-CANTON   FAIR      50  22  33 SW17      29.68F
WOOSTER        FAIR      46  24  42 SW14      29.68F
MANSFIELD      CLOUDY    50  28  42 S21G30    29.66R
YOUNGSTOWN     MOCLDY    48  22  35 S9        29.68F
$$

OHZ042-051>053-060>062-070>072-077>081-250700-
  SOUTHWEST OHIO

CITY           SKY/WX    TMP DP  RH WIND       PRES   REMARKS
CINC-COVINGTON MOCLDY    51  29  42 SW14G21   29.75F
CINC-LUNKEN    FAIR      48  30  49 S10       29.77R
HAMILTON       FAIR      52  28  39 SW7       29.74F
DAYTON         MOCLDY    49  28  44 SW20G26   29.70F
WRIGHT-PAT AFB FAIR      50  24  36 S15       29.70F
DAYTON GENERAL FAIR      50  26  39 S13       29.71F
WILMINGTON     FAIR      47  30  51 SW17G23   29.73S
$$

OHZ036-037-039>041-045>050-054>059-063>069-073>076-082>088-250700-
  CENTRAL AND SOUTHEAST OHIO

CITY           SKY/WX    TMP DP  RH WIND       PRES   REMARKS
COLUMBUS       MOCLDY    48  26  42 S8        29.73F
OSU AIRPORT    CLOUDY    49  28  44 S13       29.72S
BOLTON FIELD   FAIR      46  28  49 S10       29.73R
RICKENBACK AFB FAIR      44  26  50 S8        29.73S
NEWARK         FAIR      47  24  40 SW6       29.73S
MARION         FAIR      48  28  46 S17       29.67F
LANCASTER      FAIR      48  26  42 SW6       29.74F
ZANESVILLE     FAIR      45  23  42 S7        29.74F
NEW PHILLY     FAIR      50  23  34 S7        29.73F
$$




USA.gov is the U.S. government's official web portal to all federal, state and local government web resources and services.